Change the Weather History Date:

Wednesday, August 28, 2013

  Actual Average Record
Temperature  
Mean Temperature 76 °F 68 °F  
Max Temperature 82 °F 78 °F 99 °F (1948)
Min Temperature 69 °F 58 °F 41 °F (1982)
Degree Days  
Heating Degree Days 0 1  
Month to date heating degree days 10 18  
Since 1 June heating degree days 76 98  
Since 1 July heating degree days 18 30  
Cooling Degree Days 11 4  
Month to date cooling degree days 122 145  
Year to date cooling degree days 561 474  
Since 1 June cooling degree days 490 444  
Growing Degree Days 26 (Base 50)    
Moisture  
Dew Point 69 °F    
Average Humidity 83    
Maximum Humidity 100    
Minimum Humidity 65    
Precipitation  
Precipitation 0.10 in 0.11 in 1.70 in (1913)
Month to date precipitation 2.60 3.16  
Year to date precipitation 25.11 22.29  
Snow  
Snow 0.00 in 0.00 in 0.00 in ()
Month to date snowfall 0.0 0.0  
Since 1 June snowfall 0.0 0.0  
Since 1 July snowfall 0.0 0.0  
Snow Depth 0.00 in    
Sea Level Pressure  
Sea Level Pressure 29.89 in    
Wind  
Wind Speed 6 mph (ENE)    
Max Wind Speed 16 mph    
Max Gust Speed 20 mph    
Visibility 8 miles    
Events Rain    
T = Trace of Precipitation, MM = Missing Value Source: NWS Daily Summary

Daily Weather History Graph

Daily Weather History Graph

Search for Another Location

Airport or City:

Trip Planner

Search our weather history database for the weather conditions in past years. The results will help you decide how hot, cold, wet, or windy it might be!

Date:

Astronomy

Aug. 28, 2013 Rise Set
Actual Time 6:30 AM EDT 7:51 PM EDT
Civil Twilight 6:01 AM EDT 8:21 PM EDT
Nautical Twilight 5:25 AM EDT 8:56 PM EDT
Astronomical Twilight 4:47 AM EDT 9:34 PM EDT
Moon No Moon Rise 2:32 PM EDT (8/28)
Length of Visible Light 14h 20m
Length of Day
13h 21m
Waning Gibbous, 47% of the Moon is Illuminated
Aug 28
Waning Gibbous
Sep 5
New
Sep 12
First Quarter
Sep 19
Full
Sep 26
Last Quarter

Hourly Weather History & Observations

Time (EDT) Temp. Heat Index Dew Point Humidity Pressure Visibility Wind Dir Wind Speed Gust Speed Precip Events Conditions
12:15 AM 73.4 °F - 69.8 °F 88% 29.91 in 5.0 mi Calm Calm - N/A   Overcast
12:54 AM 72.0 °F - 70.0 °F 93% 29.89 in 4.0 mi WSW 5.8 mph - N/A   Mostly Cloudy
1:54 AM 73.0 °F - 70.0 °F 90% 29.87 in 4.0 mi Calm Calm - N/A   Overcast
2:52 AM 73.4 °F - 71.6 °F 94% 29.88 in 5.0 mi SSW 6.9 mph - 0.00 in   Overcast
2:54 AM 73.0 °F - 71.1 °F 93% 29.88 in 5.0 mi SSW 6.9 mph - 0.00 in   Overcast
3:10 AM 73.4 °F - 69.8 °F 88% 29.88 in 7.0 mi South 9.2 mph - 0.00 in Rain Light Rain
3:54 AM 72.0 °F - 69.1 °F 91% 29.87 in 8.0 mi SSE 8.1 mph - 0.01 in   Light Drizzle
4:54 AM 71.1 °F - 69.1 °F 93% 29.88 in 4.0 mi SE 3.5 mph - 0.07 in Rain Rain
5:54 AM 70.0 °F - 68.0 °F 93% 29.86 in 7.0 mi WSW 4.6 mph - 0.02 in   Overcast
6:51 AM 69.8 °F - 69.8 °F 100% 29.87 in 6.0 mi Calm Calm - N/A   Mostly Cloudy
6:54 AM 70.0 °F - 69.1 °F 97% 29.88 in 6.0 mi Calm Calm - N/A   Overcast
7:54 AM 71.1 °F - 69.1 °F 93% 29.88 in 8.0 mi East 3.5 mph - N/A   Mostly Cloudy
8:13 AM 71.6 °F - 69.8 °F 94% 29.89 in 7.0 mi East 4.6 mph - N/A   Overcast
8:54 AM 73.0 °F - 70.0 °F 90% 29.88 in 9.0 mi ESE 5.8 mph - N/A   Overcast
9:54 AM 73.9 °F - 71.1 °F 91% 29.88 in 10.0 mi ESE 5.8 mph - N/A   Overcast
10:23 AM 73.4 °F - 69.8 °F 88% 29.89 in 10.0 mi East 5.8 mph - N/A   Overcast
10:54 AM 75.0 °F - 71.1 °F 87% 29.89 in 10.0 mi East 4.6 mph - N/A   Mostly Cloudy
11:16 AM 77.0 °F - 71.6 °F 83% 29.89 in 10.0 mi ENE 4.6 mph - N/A   Mostly Cloudy
11:43 AM 78.8 °F - 69.8 °F 74% 29.89 in 10.0 mi ENE 4.6 mph - N/A   Mostly Cloudy
11:54 AM 78.1 °F - 70.0 °F 76% 29.89 in 10.0 mi East 6.9 mph - N/A   Mostly Cloudy
12:54 PM 80.1 °F 83.2 °F 70.0 °F 71% 29.87 in 10.0 mi ESE 8.1 mph - N/A   Mostly Cloudy
1:54 PM 80.1 °F 83.2 °F 70.0 °F 71% 29.88 in 10.0 mi NNE 10.4 mph - N/A   Scattered Clouds
2:54 PM 81.0 °F 84.4 °F 70.0 °F 69% 29.87 in 10.0 mi NE 11.5 mph - N/A   Mostly Cloudy
3:54 PM 82.0 °F 85.5 °F 69.1 °F 65% 29.87 in 10.0 mi NNE 12.7 mph - N/A   Scattered Clouds
4:54 PM 81.0 °F 83.8 °F 68.0 °F 65% 29.89 in 10.0 mi NNE 15.0 mph - N/A   Scattered Clouds
5:54 PM 79.0 °F - 69.1 °F 72% 29.89 in 10.0 mi NE 8.1 mph - N/A   Scattered Clouds
6:54 PM 78.1 °F - 68.0 °F 71% 29.90 in 10.0 mi ENE 5.8 mph - N/A   Partly Cloudy
7:54 PM 77.0 °F - 68.0 °F 74% 29.92 in 10.0 mi NNE 4.6 mph - N/A   Partly Cloudy
8:54 PM 73.9 °F - 68.0 °F 82% 29.93 in 10.0 mi North 3.5 mph - N/A   Clear
9:54 PM 72.0 °F - 68.0 °F 87% 29.95 in 8.0 mi North 4.6 mph - N/A   Clear
10:54 PM 71.1 °F - 68.0 °F 90% 29.96 in 8.0 mi North 3.5 mph - N/A   Clear
11:54 PM 70.0 °F - 68.0 °F 93% 29.96 in 8.0 mi Calm Calm - N/A   Clear